www.pogodaiklimat.ru

Погода и климат >> Архив погоды >> Австрия >> Зальцбург


АРХИВ ПОГОДЫ в Зальцбурге

Время (UTC), дата Ветер
(напр.,м/с)
 
Видим.   Явления Облачность Т
(С)
Тd
(С)
f
(%)
Тe
(С)
Тes
(С)
Комфортность P
(гПа)
Po
(гПа)
Тmin
(С)
Tmax
(С)
R
(мм)
R24
(мм)
S
(см)
13 16.09 55 км 6/6 1500 м
[]
+25.6 +15.9 55 1016.0 966.2
14 16.09 СЗ 5 55 км 6/6 1500 м
[]
+26.4 +15.2 50 +29 +30 жарко 1015.3 965.7
15 16.09 С 4 45 км 6/6 1500 м
[]
+25.3 +16.2 57 +29 +29 душно 1015.4 965.6
16 16.09 С 4 50 км 8/8 1500 м
[]
+24.8 +16.1 58 +28 +28 жарко 1015.3 965.5
17 16.09 45 км 8/8 1500 м
[]
+22.7 +17.4 72 1015.5 965.3
18 16.09 21 км 8/8 1500 м
[]
+21.3 +16.6 75 1016.0 965.5 +26.7
19 16.09 40 км слаб. ливневой дождь 9/9 1500 м
[]
+19.7 +16.8 83 1016.4 965.7
20 16.09 40 км гроза без осадков 9/9 1500 м
[]
+18.7 +16.5 87 1016.8 965.9
21 16.09 С 1 40 км гроза без осадков 9/9 750 м
[]
+19.4 +16.5 83 +22 +22 комфорт 1016.9 966.1 0.0
22 16.09 3200 м слаб. ливневой дождь 10/10 1020 м
[]
+17.2 +15.6 90 1017.7 966.4 5
23 16.09 35 км 10/10 1380 м
[]
+17.2 +15.8 91 1017.2 966.0 3
00 17.09 С 2 27 км 10/0
[]
+16.8 +15.8 94 +17 +17 тепло 1017.1 965.8 2
01 17.09 16 км слаб. дождь 10/10 450 м
[]
+16.6 +15.6 94 1016.9 965.6 0.0
02 17.09 14 км 10/10 30 м
[]
+16.4 +15.5 94 1017.1 965.7 0.0
03 17.09 8000 м 10/10 1500 м
[]
+16.0 +15.4 96 1017.0 965.6
04 17.09 12 км дымка 10/10 60 м
[]
+15.7 +15.1 96 1017.4 965.9
05 17.09 4100 м туман на расстоянии 9/9 60 м
[]
+15.6 +15.1 97 1017.6 966.1
06 17.09 С 1 2700 м туман местами 9/9 60 м
[]
+15.3 +14.8 97 +16 +16 тепло 1018.0 966.4 +15.1 11
07 17.09 19 км 9/9 60 м
[]
+16.0 +15.2 95 1017.7 966.2
08 17.09 30 км 9/9 90 м
[]
+16.9 +14.9 88 1017.6 966.3 0.0
09 17.09 С 3 30 км 9/9 150 м
[]
+18.2 +14.6 80 +19 +19 тепло 1017.4 966.3
10 17.09 30 км 9/9 600 м
[]
+19.0 +12.2 65 1017.2 966.2
11 17.09 С 3 29 км 6/6 900 м
[]
+20.8 +14.4 67 +24 +27 комфорт 1016.6 966.0
12 17.09 С 5 40 км 6/6 1200 м
[]
+21.2 +13.5 61 +24 +26 комфорт 1016.0 965.5 0.0
13 17.09 СЗ 6 35 км 6/6 1200 м
[]
+21.8 +13.4 59 +25 +26 комфорт 1015.2 964.8
14 17.09 С 6 40 км 6/6 1200 м
[]
+21.1 +13.5 62 +24 +24 комфорт 1015.3 964.8
15 17.09 С 6 35 км 6/6 900 м
[]
+19.8 +13.5 67 +21 +22 комфорт 1016.0 965.2
16 17.09 С 5 45 км 8/8 750 м
[]
+19.0 +12.9 68 +20 +20 тепло 1016.1 965.2
17 17.09 СЗ 5 35 км 8/8 750 м
[]
+17.8 +13.1 74 +17 +17 тепло 1016.7 965.5
18 17.09 СЗ 4 35 км 8/8 900 м
[]
+17.6 +13.0 74 +17 +17 тепло 1017.2 966.0 +22.2 0.0
19 17.09 СЗ 4 35 км 8/8 900 м
[]
+16.7 +13.0 79 +16 +16 тепло 1018.1 966.7
20 17.09 С 5 50 км 8/8 900 м
[]
+16.5 +12.1 75 +16 +16 тепло 1019.1 967.6
21 17.09 СЗ 5 45 км 9/9 900 м
[]
+16.0 +11.4 74 +15 +15 тепло 1019.8 968.1
22 17.09 СЗ 4 50 км 8/8 1440 м
[]
+15.5 +10.8 74 +15 +15 тепло 1020.2 968.4
23 17.09 СЗ 5 40 км 10/10 900 м
[]
+15.2 +9.8 70 +14 +14 тепло 1020.6 968.7
00 18.09 СЗ 4 40 км 10/10 1200 м
[]
+14.8 +8.6 66 +14 +14 тепло 1021.2 969.2
01 18.09 45 км 10/10 1440 м
[]
+13.8 +8.1 68 1021.6 969.4
02 18.09 СЗ 4 45 км 10/10 1320 м
[]
+13.2 +7.4 68 +12 +12 тепло 1022.0 969.7
03 18.09 СЗ 4 45 км 10/10 1500 м
[]
+12.6 +7.1 69 +11 +11 по сезону 1022.9 970.4
04 18.09 40 км 9/9 900 м
[]
+11.9 +6.6 70 1023.3 970.7
05 18.09 40 км 9/9 900 м
[]
+11.4 +6.5 72 1023.8 971.1
06 18.09 СЗ 4 40 км 9/9 900 м
[]
+10.9 +6.3 73 +9 +9 по сезону 1024.3 971.4 +10.9
07 18.09 СЗ 3 45 км 9/9 600 м
[]
+11.2 +6.7 74 +9 +10 прохладно 1024.6 971.8
08 18.09 35 км 6/6 600 м
[]
+12.3 +6.4 67 1024.7 972.1
09 18.09 40 км 4/4 600 м
[]
+13.7 +6.8 63 1024.3 971.9
10 18.09 50 км 4/4 750 м
[]
+14.6 +5.6 55 1024.0 971.8
11 18.09 40 км 4/4 1050 м
[]
+14.8 +5.8 55 1023.6 971.5
12 18.09 45 км 4/4 1200 м
[]
+15.9 +6.9 55 1022.9 971.0
13 18.09 С 3 45 км 4/4 1200 м
[]
+16.9 +7.5 54 +17 +21 тепло 1022.3 970.6
14 18.09 45 км 5/5 1300 м
[]
+16.3 +7.0 54 1022.3 970.5
15 18.09 40 км 5/5 1320 м
[]
+16.0 +6.7 54 1022.0 970.2
16 18.09 45 км 6/6 1320 м
[]
+15.5 +6.1 53 1022.1 970.2
17 18.09 60 км 5/5 1380 м
[]
+14.9 +3.6 47 1022.4 970.3
18 18.09 С 2 45 км 3/3 1380 м
[]
+12.4 +5.5 63 +12 +12 прохладно 1023.5 970.9 +16.9
19 18.09 35 км 1/1 1380 м
[]
+10.8 +8.1 83 1024.6 971.7
20 18.09 45 км 1/1 1380 м
[]
+8.9 +6.6 85 1025.2 971.9
21 18.09 45 км 1/1 1380 м
[]
+8.3 +6.0 85 1025.6 972.2
22 18.09 45 км 1/1 1380 м
[]
+7.8 +5.5 85 1025.9 972.4
23 18.09 50 км 3/3 1500 м
[]
+6.6 +4.5 86 1026.5 972.7
00 19.09 С 1 10 км 1/1 1500 м
[]
+6.0 +4.8 92 +5 +5 холодно 1026.6 972.7
01 19.09 18 км н/о +5.5 +4.5 93 1026.4 972.4
02 19.09 9000 м н/о +4.9 +4.1 95 1026.3 972.2
03 19.09 С 1 35 км 4/4 1500 м
[]
+4.9 +3.8 93 +3 +3 очень
холодно
1026.6 972.5
04 19.09 6000 м 8/0
[]
+3.9 +3.0 94 1027.0 972.7
05 19.09 40 км 8/8 60 м
[]
+3.7 +2.8 94 1027.4 973.0
06 19.09 С 1 40 км 8/8 60 м
[]
+4.9 +3.8 93 +3 +4 холодно 1027.7 973.5 +3.6
07 19.09 штиль 0 40 км 8/8 60 м
[]
+7.6 +4.9 83 +7 +7 очень
холодно
1027.6 974.0
08 19.09 40 км 5/5 1500 м
[]
+9.2 +6.0 80 1027.9 974.5
09 19.09 45 км 1/1 1200 м
[]
+11.4 +6.9 74 1027.3 974.4
10 19.09 50 км 1/1 1350 м
[]
+13.0 +5.6 61 1026.8 974.2
11 19.09 С 3 40 км 1/1 1500 м
[]
+14.2 +5.3 55 +13 +21 холодно 1026.6 974.2
12 19.09 СВ 4 50 км 3/3 1350 м
[]
+14.9 +3.8 47 +14 +18 прохладно 1026.1 973.8
13 19.09 СЗ 4 45 км 4/4 1500 м
[]
+15.4 +3.1 44 +15 +18 по сезону 1026.2 974.0
14 19.09 45 км 3/3 1500 м
[]
+15.4 +3.3 44 1026.0 973.8
15 19.09 С 4 40 км 3/3 1500 м
[]
+15.4 +3.1 44 +15 +16 по сезону 1026.1 973.9
16 19.09 50 км 4/4 1500 м
[]
+15.3 +2.7 43 1026.2 974.0
17 19.09 55 км 3/3 1500 м
[]
+13.9 +3.2 48 1026.6 974.1
18 19.09 С 1 35 км 1/1 1500 м
[]
+10.4 +5.1 70 +10 +10 прохладно 1027.5 974.4 +16.2
19 19.09 45 км 1/1 1500 м
[]
+9.2 +5.1 76 1028.4 975.0
20 19.09 45 км 1/1 1500 м
[]
+7.6 +4.9 83 1029.6 975.8
21 19.09 45 км 1/1 1500 м
[]
+8.1 +4.1 76 1029.6 975.9
22 19.09 45 км 1/0
[]
+6.3 +3.8 84 1029.7 975.7
23 19.09 45 км 1/0
[]
+5.9 +3.9 87 1030.0 975.9
00 20.09 40 км н/о +4.7 +3.6 93 1030.1 975.8
01 20.09 40 км 1/0
[]
+4.2 +2.9 91 1029.9 975.5
02 20.09 40 км 1/0
[]
+3.6 +2.7 94 1029.6 975.1
03 20.09 30 км 1/0
[]
+2.6 +1.7 94 1029.8 975.0
04 20.09 40 км 1/0
[]
+2.5 +1.5 93 1029.5 974.7
05 20.09 35 км 4/4 60 м
[]
+2.1 +1.3 94 1029.9 975.0
06 20.09 С 1 45 км 8/0
[]
+3.6 +2.4 92 +2 +2 очень
холодно
1030.0 975.4 +1.8
07 20.09 40 км 8/0
[]
+6.7 +4.1 83 1029.4 975.5
08 20.09 40 км 8/0
[]
+9.3 +5.3 76 1029.1 975.7
09 20.09 40 км 6/0
[]
+11.5 +5.2 65 1028.6 975.6
10 20.09 40 км 3/3 1200 м
[]
+13.0 +6.7 66 1028.1 975.4
11 20.09 40 км 4/4 1200 м
[]
+14.5 +5.9 56 1027.4 975.0
12 20.09 СВ 3 35 км 4/4 1200 м
[]
+15.7 +4.1 46 +15 +20 прохладно 1026.6 974.4
14 20.09 С 3 45 км 5/5 1500 м
[]
+16.6 +2.2 38 +16 +19 по сезону 1025.5 973.5
15 20.09 С 2 60 км 5/5 1500 м
[]
+16.7 +1.8 37 +17 +18 по сезону 1025.3 973.4
16 20.09 55 км 5/5 1500 м
[]
+16.3 +2.2 39 1025.3 973.3
17 20.09 60 км 4/0
[]
+15.0 +2.6 43 1025.5 973.3
18 20.09 С 2 50 км 3/0
[]
+10.1 +5.6 74 +9 +9 холодно 1026.7 973.6 +17.3
19 20.09 50 км 3/0
[]
+8.7 +4.2 73 1027.1 973.7
20 20.09 40 км ясно +8.8 +4.4 74 1027.2 973.8
21 20.09 40 км ясно +7.1 +4.3 82 1027.2 973.5
22 20.09 45 км н/о +6.1 +4.0 86 1027.2 973.3
23 20.09 35 км н/о +5.3 +3.9 91 1026.9 972.8
00 21.09 50 км н/о +5.2 +3.5 89 1026.6 972.5
01 21.09 30 км н/о +3.9 +3.0 94 1026.4 972.1
02 21.09 35 км н/о +3.7 +2.5 92 1025.7 971.4
03 21.09 45 км 1/0
[]
+5.7 +3.7 87 1024.7 970.8
04 21.09 40 км ясно +3.5 +2.2 91 1024.7 970.4
05 21.09 35 км 1/1 30 м
[]
+3.8 +2.8 93 1024.5 970.3
06 21.09 С 2 35 км ясно +4.8 +3.3 90 +2 +2 очень
холодно
1024.1 970.1 +2.2
07 21.09 55 км ясно +9.6 +5.8 77 1023.3 970.2
08 21.09 60 км ясно +12.6 +6.0 64 1022.6 970.1
09 21.09 50 км ясно +14.5 +5.5 55 1021.9 969.8
10 21.09 45 км ясно +17.0 +6.0 48 1020.9 969.3
11 21.09 45 км ясно +17.8 +7.6 51 1020.5 969.1
12 21.09 50 км ясно +18.7 +8.6 52 1019.7 968.5
13 21.09 50 км ясно +19.9 +8.9 49 1018.9 967.9
14 21.09 50 км ясно +20.4 +9.9 51 1017.8 967.0
15 21.09 55 км ясно +20.7 +9.8 50 1017.1 966.4
16 21.09 55 км ясно +20.1 +10.6 54 1016.8 966.0
17 21.09 60 км ясно +17.3 +11.3 68 1016.9 965.6
18 21.09 С 2 45 км ясно +14.3 +10.6 78 +14 +14 по сезону 1017.3 965.5 +20.9
19 21.09 40 км ясно +13.1 +10.2 83 1017.2 965.2
20 21.09 27 км ясно +10.9 +9.3 90 1017.4 964.9
21 21.09 30 км ясно +10.7 +9.4 92 1017.1 964.6
22 21.09 30 км н/о +9.4 +8.1 92 1016.9 964.2
23 21.09 30 км н/о +8.4 +7.3 93 1016.6 963.7
00 22.09 С 1 16 км 1/0
[]
+7.7 +6.7 93 +7 +7 прохладно 1016.4 963.4
01 22.09 24 км 4/0
[]
+7.5 +6.8 95 1016.1 963.1
02 22.09 29 км 4/0
[]
+7.6 +6.5 93 1015.8 962.8
03 22.09 С 1 25 км 4/4 30 м
[]
+6.4 +5.6 95 +5 +5 холодно 1015.6 962.4
04 22.09 28 км 4/4 30 м
[]
+6.3 +5.7 96 1015.3 962.1
05 22.09 17 км 4/4 30 м
[]
+6.4 +5.6 95 1015.2 962.0
06 22.09 С 1 19 км 6/0
[]
+7.1 +6.3 95 +6 +6 прохладно 1015.2 962.1 +5.4
07 22.09 45 км 8/0
[]
+10.7 +8.2 85 1014.6 962.2
08 22.09 55 км 8/0
[]
+14.7 +10.0 73 1013.9 962.3
09 22.09 С 2 50 км 8/0
[]
+15.3 +10.5 73 +15 +19 по сезону 1013.4 961.9
10 22.09 40 км 9/0
[]
+15.7 +10.8 73 1012.9 961.5
11 22.09 35 км 9/0
[]
+17.0 +11.1 68 1012.2 961.1
12 22.09 С 2 45 км 9/0
[]
+17.5 +11.6 68 +18 +23 по сезону 1011.7 960.7
13 22.09 45 км 9/0
[]
+18.5 +11.7 65 1011.2 960.4
14 22.09 45 км 10/0
[]
+18.5 +12.4 68 1010.8 960.1
15 22.09 С 2 45 км 10/0
[]
+18.4 +12.4 68 +19 +21 тепло 1010.8 960.0
16 22.09 40 км 10/0
[]
+18.5 +13.0 70 1010.6 959.9
17 22.09 20 км 10/0
[]
+17.4 +13.0 75 1010.7 959.8
18 22.09 С 1 30 км 10/0
[]
+16.0 +13.2 83 +17 +17 тепло 1011.1 959.9 +18.7
19 22.09 35 км 9/0
[]
+15.2 +12.4 83 1011.2 959.9
20 22.09 40 км 9/0
[]
+14.7 +12.6 87 1011.2 959.8
21 22.09 С 2 40 км 4/0
[]
+13.8 +11.7 87 +13 +13 по сезону 1010.9 959.3
22 22.09 ЮВ 3 55 км 1/0
[]
+14.4 +11.0 80 +13 +13 тепло 1010.5 959.0
23 22.09 50 км н/о +13.4 +10.4 82 1010.7 959.0
00 23.09 Ю 4 50 км н/о +12.7 +9.9 83 +11 +11 по сезону 1010.9 959.1
01 23.09 35 км 1/0
[]
+11.0 +9.0 87 1011.6 959.5
02 23.09 5000 м 4/4 30 м
[]
+10.5 +9.5 94 1012.2 959.9
03 23.09 С 1 5000 м 9/9 <50 м
[]
+9.4 +8.6 95 +9 +9 по сезону 1012.5 960.0
04 23.09 17 км 9/9 90 м
[]
+9.6 +8.8 95 1012.5 960.1
05 23.09 40 км 9/9 180 м
[]
+9.9 +9.1 95 1013.0 960.6
06 23.09 С 1 30 км 9/9 1050 м
[]
+11.9 +10.4 91 +12 +12 тепло 1013.9 961.8 +9.1
07 23.09 60 км 10/10 660 м
[]
+15.9 +11.6 76 1014.0 962.6
08 23.09 З 4
{14}
20 км слаб. дождь 10/10 360 м
[]
+15.8 +11.5 76 +15 +15 тепло 1015.0 963.6 0.1
09 23.09 С 3
{14}
19 км слаб. дождь 10/10 210 м
[]
+14.8 +12.1 84 +14 +14 по сезону 1016.0 964.3 2
10 23.09 50 км слаб. дождь 10/10 240 м
[]
+15.3 +11.3 77 1016.1 964.5 0.0
11 23.09 16 км слаб. ливневой дождь 10/10 240 м
[]
+14.5 +12.1 86 1016.3 964.6 0.2
12 23.09 С 2
{14}
20 км слаб. дождь 10/10 240 м
[]
+14.6 +12.3 86 +14 +14 прохладно 1016.2 964.5 0.6

 

Местоположение метеостанции Зальцбург (Австрия): широта 47.80 долгота 13.00 высота над уровнем моря 450 м.

В архиве по умолчанию представлена погода в Зальцбурге за последнюю неделю. Архивные данные за месяц целиком и за предыдущие месяцы, начиная с января 2011 года, Вы можете получить, выбрав интересующий диапазон дат из раскрывающегося списка и нажав кнопку "Ввод!".


*Определитесь, кто Вы:
робот инопланетянин человек

Внимание! Время в таблицах - всемирное. Для получения местного времени необходимо прибавить поправку, которая равна 1 ч.

Смотрите также архив погоды в соседних городах и на ближайших метеорологических станциях:

Погода в Зальцбурге университет (Австрия) (4 км)
Погода в Маттзе (Австрия) (21 км)
Погода в Мондзе (Австрия) (28 км)
Погода в Лофере (Австрия) (33 км)
Погода в Лоферер Альме (Австрия) (34 км)
Погода в Санкт-Вольфганге (Австрия) (35 км)
Погода в Киминге (Германия) (36 км)
Погода в Франкенмаркте (Австрия) (38 км)
Погода в Мария-Альм (Австрия) (44 км)
Погода в Рансхофене (Австрия) (47 км)

Пояснения к столбцам:

Ветер - указаны скорость ветра в м/с - средняя за 10 мин, порывы в срок и между сроками (в фигурных скобках) и направление, откуда дует ветер: С - северный, СВ - северо-восточный, В - восточный, ЮВ - юго-восточный, Ю - южный, ЮЗ - юго-западный, З - западный, СЗ - северо-западный.
Видимость - горизонтальная дальность видимости в метрах или километрах. При видимости от 1 до 10 км при отсутствии осадков обычно наблюдается дымка, при ухудшении видимости до 1 км и менее - туман. В сухую погоду видимость может ухудшаться дымом, пылью или мглою.
Явления - указаны атмосферные явления, наблюдавшиеся в срок или в последний час перед сроком; фигурными скобками обозначены явления, наблюдавшиеся между сроками (за 1-3 часа до срока); квадратными скобками обозначены град или гололедные отложения с указанием их диаметра в мм.
Облачность - указаны через наклонную черту общая и нижняя облачность в баллах и высота нижней границы облаков в метрах; квадратными скобками обозначены формы облаков: Ci - перистые, Cs - перисто-слоистые, Cc - перисто-кучевые, Ac - высококучевые, As - высокослоистые, Sc - слоисто-кучевые, Ns - слоисто-дождевые, Cu - кучевые, Cb - кучево-дождевые. Подробнее классификацию облаков см. в Атласе облаков (PDF).
T - Температура воздуха - температура, измеренная на высоте 2 м над землей.
Td - Температура точки росы - температура, при понижении до которой содержащийся в воздухе водяной пар достигнет насыщения.
f - Относительная влажность воздуха - влажноcть воздуха, измеренная на высоте 2 м над землей.
Te - Эффективная температура - температура, которую ощущает одетый по сезону человек в тени. Характеристика душности погоды. При расчете учитывается влияние влажности воздуха и скорости ветра на теплоощущения человека.
Tes - Эффективная температура на солнце - температура, которую ощущает человек, с поправкой на солнечный нагрев. Характеристика знойности погоды. Зависит от высоты солнца над горизонтом, облачности и скорости ветра. Ночью, в пасмурную погоду, а также при ветре 12 м/с и более поправка равна нулю.
P - Атмосферное давление - приведенное к уровню моря атмосферное давление.
Po - Атмосферное давление - измеренное на уровне метеостанции атмосферное давление.
Tmin - Минимальная температура - минимум температуры воздуха на высоте 2 м над землей.
Tmax - Максимальная температура - максимум температуры воздуха на высоте 2 м над землей.
R - Количество осадков - Количество выпавших осадков за период времени, мм. При наведении курсора мыши на число - период времени, за который выпало указанное количество осадков.
R24 - Количество осадков - Количество выпавших осадков за 24 часа, мм.
S - Снежный покров - Высота снежного покрова, см. При наведении курсора мыши на число - состояние снежного покрова и степень покрытия местности в баллах.